Regional Weather Roundup
Issued by NWS Cleveland, OH

Home | Current Version | Previous Version | Graphics & Text | Print | Product List | Glossary On
Versions: 1 2 3 4 5 6 7 8 9 10 11 12 13 14 15 16 17 18 19 20 21 22 23 24 25 26 27 28 29 30 31 32 33 34 35 36 37 38 39 40 41 42 43 44 45 46 47 48 49 50
510
ASUS41 KCLE 232300
RWRCLE
OHIO REGIONAL WEATHER ROUNDUP
NATIONAL WEATHER SERVICE WILMINGTON, OH
700 PM EDT TUE AUG 23 2016

NOTE: "FAIR" INDICATES FEW OR NO CLOUDS BELOW 12,000 FEET WITH NO
SIGNIFICANT WEATHER AND/OR OBSTRUCTIONS TO VISIBILITY.

OHZ001>008-015>018-024>027-034-035-043-044-240000-
   NORTHWEST OHIO

CITY           SKY/WX    TMP DP  RH WIND       PRES   REMARKS
DEFIANCE       FAIR      80  59  48 S9        30.21S
FINDLAY        FAIR      79  58  48 S7        30.21F
TOLEDO EXPRESS FAIR      78  60  53 S5        30.20F
TOLEDO EXEC    FAIR      79  61  53 S8        30.22S
LIMA           FAIR      77  62  59 S6        30.22F
$$

OHZ009>014-019>023-028>033-038-089-240000-
   NORTHEAST OHIO

CITY           SKY/WX    TMP DP  RH WIND       PRES   REMARKS
CLE-HOPKINS    FAIR      80  57  45 N7        30.25F
CLE-LAKEFRONT  FAIR      78  57  48 N5        30.22F
CUY CO. ARPT   NOT AVBL
LORAIN-ELYRIA  FAIR      78  59  51 NW5       30.23F
ASHTABULA      FAIR      74  62  66 CALM      30.25F
AKRON-CANTON   FAIR      79  54  41 S6        30.25F
WOOSTER        NOT AVBL
MANSFIELD      FAIR      77  57  50 SW8       30.25F
YOUNGSTOWN     PTSUNNY   79  57  46 S3        30.25F
$$

OHZ042-051>053-060>062-070>072-077>081-240000-
  SOUTHWEST OHIO

CITY           SKY/WX    TMP DP  RH WIND       PRES   REMARKS
CINC-COVINGTON PTSUNNY   79  62  56 S3        30.22S
CINC-LUNKEN    FAIR      78  62  57 SE3       30.22S
HAMILTON       FAIR      78  60  53 SE3       30.23R
DAYTON         NOT AVBL
WRIGHT-PAT AFB FAIR      79  57  46 SE10      30.23S
DAYTON GENERAL FAIR      78  58  49 SE7       30.23S
WILMINGTON     FAIR      77  61  57 S5        30.25R
$$

OHZ036-037-039>041-045>050-054>059-063>069-073>076-082>088-240000-
  CENTRAL AND SOUTHEAST OHIO

CITY           SKY/WX    TMP DP  RH WIND       PRES   REMARKS
COLUMBUS       PTSUNNY   79  57  46 S7        30.23F
OSU AIRPORT    FAIR      79  56  45 SW7       30.23F
BOLTON FIELD   SUNNY     79  63  57 CALM      30.25S
RICKENBACK AFB NOT AVBL
NEWARK         FAIR      79  55  43 S5        30.23F
MARION         FAIR      78  57  48 S3        30.24F
LANCASTER      FAIR      79  58  48 S3        30.24S
ZANESVILLE     FAIR      79  58  48 SE5       30.24F
NEW PHILLY     FAIR      81  57  43 CALM      30.25F
$$




USA.gov is the U.S. government's official web portal to all federal, state and local government web resources and services.